Location: Ailly
(50.0793°N, 1.9944°E)
Time: 04:33:56
(UTC+00:00)

Cosmos 2263 Rocket - Visible Passes

Search period start: 21 April 2026 00:00
Search period end: 01 May 2026 00:00
Orbit: 823 x 846 km, 71.0° (Epoch: 20 April)

Date Brightness Start Highest point End Pass type
(mag) Time Alt. Az. Time Alt. Az. Time Alt. Az.
22 Apr 5.0 04:10:43 10° SE 04:13:36 14° E 04:16:30 10° ENE visible
23 Apr 5.0 03:54:01 10° ESE 03:56:29 13° E 03:58:57 10° ENE visible
24 Apr 5.0 03:37:26 10° ESE 03:39:23 12° E 03:41:19 10° ENE visible
25 Apr 5.1 03:21:07 10° ESE 03:22:17 11° E 03:23:26 10° E visible
29 Apr 3.2 03:51:01 10° S 03:56:21 46° ESE 04:01:41 10° NE visible
30 Apr 3.3 03:33:56 10° S 03:39:11 42° ESE 03:44:27 10° NE visible
